This is the latest recevied weather packets stored in our database for station/object WE8L. If no packets are shown the sender has not sent any weather packets the latest 10 day(s).
| Time | Temp. | Humidity | Pressure | Rain* | Wind** | Luminosity | Snow |
|---|---|---|---|---|---|---|---|
| 1777896605 | 13.33° C | 68% | 1012 hPa | 0 mm | - | 25 W/m² | - |
| 1777896301 | 13.33° C | 67% | 1012 hPa | 0 mm | - | 27 W/m² | - |
| 1777896000 | 13.33° C | 67% | 1012.1 hPa | 0 mm | - | 30 W/m² | - |
| 1777895698 | 13.33° C | 67% | 1011.9 hPa | 0 mm | - | 29 W/m² | - |
| 1777895394 | 13.33° C | 67% | 1012 hPa | 0 mm | - | 25 W/m² | - |
| 1777895092 | 13.33° C | 66% | 1011.9 hPa | 0 mm | - | 21 W/m² | - |
| 1777894789 | 13.33° C | 66% | 1011.7 hPa | 0 mm | - | 18 W/m² | - |
| 1777894485 | 13.33° C | 65% | 1011.6 hPa | 0 mm | - | 14 W/m² | - |
| 1777894183 | 13.33° C | 65% | 1011.8 hPa | 0 mm | - | 9 W/m² | - |
| 1777893880 | 13.33° C | 65% | 1011.9 hPa | 0 mm | - | 4 W/m² | - |
| 1777893576 | 12.78° C | 65% | 1012 hPa | 0 mm | - | 8 W/m² | - |
| 1777893273 | 12.78° C | 66% | 1011.8 hPa | 0 mm | - | 6 W/m² | - |
| 1777892970 | 12.78° C | 65% | 1011.7 hPa | 0 mm | - | 5 W/m² | - |
| 1777892666 | 12.78° C | 65% | 1011.7 hPa | 0 mm | - | 5 W/m² | - |
| 1777892362 | 12.22° C | 65% | 1011.9 hPa | 0 mm | - | 5 W/m² | - |
| 1777892058 | 12.22° C | 66% | 1011.9 hPa | 0 mm | - | 5 W/m² | - |
| 1777891756 | 12.22° C | 66% | 1011.9 hPa | 0 mm | - | 4 W/m² | - |
| 1777891452 | 11.67° C | 67% | 1011.9 hPa | 0 mm | - | 3 W/m² | - |
| 1777891149 | 11.67° C | 67% | 1011.9 hPa | 0 mm | - | 2 W/m² | - |
| 1777890849 | 11.67° C | 68% | 1011.9 hPa | 0 mm | - | 1 W/m² | - |
| 1777890544 | 11.67° C | 67% | 1011.8 hPa | 0 mm | - | 0 W/m² | - |
| 1777890240 | 11.67° C | 67% | 1011.6 hPa | 0 mm | - | 0 W/m² | - |
| 1777889937 | 11.67° C | 67% | 1011.9 hPa | 0 mm | - | 0 W/m² | - |
| 1777889635 | 11.67° C | 67% | 1011.9 hPa | 0 mm | - | 0 W/m² | - |
| 1777889331 | 11.11° C | 68% | 1012 hPa | 0 mm | - | 0 W/m² | - |
* Rain latest hour (hover to see other rain measurements)
** Current wind speed in m/s (hover to see current wind gust speed)